Regional Weather Roundup
Issued by NWS Upton, NY

Current Version | Previous Version | Graphics & Text | Print | Product List | Glossary Off
Versions: 1 2 3 4 5 6 7 8 9 10 11 12 13 14 15 16 17 18 19 20 21 22 23 24 25 26 27 28 29

000
ASUS41 KOKX 282305
RWROKX

REGIONAL WEATHER ROUNDUP
NATIONAL WEATHER SERVICE NEW YORK NY
700 PM EDT SUN AUG 28 2016

NOTE: "FAIR" INDICATES FEW OR NO CLOUDS BELOW 12,000 FEET WITH NO
SIGNIFICANT WEATHER AND/OR OBSTRUCTIONS TO VISIBILITY.

NYZ071-072-176-178-NJZ106-104-290000-
NEW YORK CITY METRO AREA

CITY           SKY/WX    TMP DP  RH WIND       PRES   REMARKS
Central Park   CLEAR     79  61  53 VRB6      30.19F
LaGuardia APRT PTCLDY    81  62  52 S12       30.15F
Kennedy INTL   PTCLDY    80  62  54 SE10      30.18S
Newark/Liberty PTCLDY    80  66  62 SE12      30.15F
Bronx Bot Gard   N/A     79  61  53 SE8       30.16F
Wall St Helipt CLEAR     81  64  57 S7        30.17F
Teterboro      CLEAR     81  58  45 S8        30.14F
$$

NYZ177-179-078>081-290000-
LONG ISLAND NEW YORK

CITY           SKY/WX    TMP DP  RH WIND       PRES   REMARKS
Farmingdale    CLEAR     77  65  66 S9        30.18F
MacArthur/ISP  PTCLDY    76  64  66 SE10      30.17F
Shirley        CLEAR     76  62  62 S10       30.19F
Riverhead      NOT AVBL
Westhampton    CLEAR     75  62  64 S7        30.20F
Southampton      N/A     75  66  73 S7        30.15S
Bridgehampton    N/A     72  64  78 S1        30.18F
East Hampton   FAIR      73  64  72 S3        30.19R
Montauk          N/A     73  63  70 S6        30.20F
$$

NYZ052-065-067-290000-
HUDSON VALLEY

CITY           SKY/WX    TMP DP  RH WIND       PRES   REMARKS
White Plains   CLEAR     79  60  52 S8        30.16F
Newburgh       NOT AVBL
Montgomery     CLEAR     82  67  60 SW6       30.14F
Poughkeepsie   CLEAR     83  64  52 S5        30.12F
Albany         MOCLDY    84  63  49 S9        30.09F
$$

NJZ001-105-106-008-010-013-015-019>022-104-290000-
NEW JERSEY

CITY           SKY/WX    TMP DP  RH WIND       PRES   REMARKS
Newark/Liberty PTCLDY    80  66  62 SE12      30.15F
Teterboro      CLEAR     81  58  45 S8        30.14F
Caldwell       CLEAR     82  62  50 S3        30.15F
Morristown     PTCLDY    82  63  51 SE7       30.15F
Somerville     CLEAR     83  65  54 S3        30.12F
Linden         FAIR      82  64  55 SE7       30.17F
Sussex         CLEAR     82  66  58 CALM      30.16F
Abdover          N/A     80  66  62 CALM      30.16F
Trenton        CLEAR     84  65  52 S9        30.14F
Millville      CLEAR     80  65  59 SE7       30.17S
Atlantic City  CLEAR     78  65  63 E8        30.17S
Wrightstown    CLEAR     80  65  61 E9        30.13F
Toms River     CLEAR     79  66  64 SE6       30.17F
Belmar         CLEAR     78  66  66 SE7       30.18F
$$

PAZ047>061-062-071-290000-
EASTERN PENNSYLVANIA

CITY           SKY/WX    TMP DP  RH WIND       PRES   REMARKS
Philadelphia   PTCLDY    86  67  52 SW12      30.15F
Allentown      CLEAR     85  62  46 W6        30.15F
Scranton       CLEAR     83  65  54 S8        30.15F
$$

CTZ002-004>006-009-010-012-RIZ004-006-007-MAZ004-011-015-290000-
SOUTHERN NEW ENGLAND
 IN CT

CITY           SKY/WX    TMP DP  RH WIND       PRES   REMARKS
Bradley INTL   PTCLDY    82  62  50 S9        30.14F
Hartford       CLEAR     82  63  52 S9        30.15S
Danbury        CLEAR     78  62  57 S7        30.18S
Wtrbury/Oxford PTCLDY    77  61  57 S9        30.21F
Bridgeport     CLEAR     80  65  59 S9        30.16F
Meriden        CLEAR     80  59  48 S10       30.17S
New Haven      CLEAR     78  62  57 S13       30.17F
Chester        FAIR      75  61  60 S7        30.19S
Groton         CLEAR     75  65  70 S7        30.18F
Wilimantic     CLEAR     78  61  55 S9        30.18S

 IN RI

CITY           SKY/WX    TMP DP  RH WIND       PRES   REMARKS
Providence     PTCLDY    75  59  57 S10       30.18F
Block Island   CLEAR     73  64  73 S7        30.20S
Westerly       CLEAR     74  61  63 S7        30.20S
 IN MA

CITY           SKY/WX    TMP DP  RH WIND       PRES   REMARKS
Boston         PTCLDY    73  63  70 SE10      30.15F
Worcester      CLEAR     77  61  57 SW7       30.19F
Westfield      CLEAR     82  63  52 S8        30.13F
Provincetown   CLEAR     72  64  76 S10       30.19
Nantucket      CLEAR     67  64  90 SE7       30.19F
$$

ANZ330-335-338-340-345-350-353-355-290000-
COASTAL MARINE OBSERVATIONS


STATION/POSITION TIME  SKY/WX   TEMP    WIND        PRES    VSBY  WAVE
                                AIR SEA DIR/SP/G                  HT/PER
                 (UTC)          (F)     (DEG/KT/KT) (MB)    (MI)  (FT/S)
NY HARB ENTRANCE 2150            76 77  140/ 12/ 14 1021.6          2/ 8
20S FIRE ISLAND  2150            75 77  130/  8/ 10 1021.9          3/ 9
GREAT SOUTH BAY  NOT AVBL
23 SSW MONTAUK P 2150            74 78  160/  8/ 10 1022.9          2/15
15 E BARNEGAT LI 2230               78                N/A           3/ 8
HUDSON CANYON    2250            76 78              1021.9          3/ 8
KINGS POINT      2200            79 78              1021.4
EXECUTION ROCKS  2200            82     160/ 10/ 14   N/A
CENTRAL LI SOUND 2200            78 78  170/ 14/ 17   N/A           1/ 2
EASTERN LI SOUND 2200            74 73  180/ 10/ 12   N/A
ROBBINS REEF     2200            76                 1020.9
$$


>>>>>>>>>>>>>>>>>>>>>>>>>>>> KEY <<<<<<<<<<<<<<<<<<<<<<<<<<<
>                                                          <
>     SKY/WX - Sky Condition/Present Weather               <
>     TMP    - Temperature in Fahrenheit                   <
>     DP     - Dew Point in Fahrenheit                     <
>     RH     - Relative Humidity in Percent                <
>     WIND   - Direction (from) and Speed in MPH           <
>     PRES   - Mean Sea Level Pressure (inches of Hg)      <
>     WCI    - Wind Chill Index                            <
>     VSB    - VISIBILITY IN MILES                         <
>     HX     - HEAT INDEX                                  <
>     TC     - TEMPERATURE IN CELSIUS                      <
>     VRB    - VARIABLE WIND DIRECTION                     <
>                                                          <
>>>>>>>>>>>>>>>>>>>>>>>>>>>> KEY <<<<<<<<<<<<<<<<<<<<<<<<<<<




USA.gov is the U.S. government's official web portal to all federal, state and local government web resources and services.